Location: ?astrovice
(49.6513°N, 14.9287°E)
Time: 16:09:29
(UTC+00:00)

FO-99 - Pass Details

Date: 23 October 2021
Orbit: 469 x 501 km, 97.2° (Epoch: 30 November)

Event Time Altitude Azimuth Distance (km) Brightness Sun altitude
Exits shadow 18:50:19 15° 340° (NNW) 1,408 ? -29.0°
Drops below altitude 10° 18:51:06 10° 342° (NNW) 1,731 ? -29.1°
Sets 18:53:12 0° 345° (NNW) 2,614 ? -29.5°
